Wind_Gust
6 10 11 13 10 12 9 11 8 9 9 10 8 8 7 8 11 11 11 9 7 7 13 13 16 14 14 13 19 20 19 18 18 19 18 19 20 19 22 21 19 18 18 13 13 14 14 15 16 15 15 14 11 10 15 16 18 19 21 19 17 16 16 17 15 15 15 15 13 10 11 9 9 10 10 9 7 6 6 6 7 8 8 8 8 8
8 8 11 12 13 12 10 11 12 10 5 7 8 7 8 8 11 10 7 7 8 8 7 7 9 15 7 7 13 17 19 23 21 20 19 17 17 18 20 21 20 17 11 10 10 11 13 16 15 15 15 13 16 14 15 16 18 19 16 17 16 16 18 17 18 18 16 14 13 13 13 10 11 11 11 11 10 7 6 6 7 7 7 7 7 10
8 12 12 14 10 10 11 9 7 8 9 7 9 6 7 11 12 16 7 6 8 6 10 7 10 8 8 6 12 17 17 15 15 16 16 15 16 18 20 19 17 15 17 11 12 12 16 15 16 17 14 14 15 14 15 13 15 14 17 17 14 15 17 17 17 17 15 12 9 8 11 11 13 8 8 10 10 9 8 6 6 8 9 9 8 10
10 12 17 10 13 12 8 9 10 10 8 9 9 7 12 7 7 9 5 9 8 7 8 8 10 6 8 8 8 10 16 7 6 12 12 16 17 18 19 18 17 18 18 17 14 13 14 15 16 15 15 15 14 13 14 14 15 15 15 14 14 14 13 13 16 12 12 12 10 10 11 10 10 12 11 11 10 11 10 9 6 6 7 10 10 10
13 6 7 13 11 10 10 7 11 10 12 6 8 8 9 8 9 11 7 5 6 6 7 13 9 8 8 10 12 7 7 7 6 9 9 15 16 14 14 16 17 20 18 19 16 13 14 16 16 17 15 14 15 15 15 14 15 13 15 14 15 15 14 13 14 14 15 16 14 14 14 14 16 12 11 12 11 10 9 8 7 7 7 10 11 10
13 12 10 12 7 6 10 8 12 13 9 8 11 16 13 9 7 9 7 7 8 7 11 8 9 10 7 7 10 12 8 14 7 11 15 15 16 18 19 19 18 17 18 21 19 16 15 15 14 14 14 15 15 16 15 14 14 14 14 15 14 13 13 14 15 16 17 17 18 18 18 17 15 15 14 14 13 12 9 8 6 6 7 8 10 10
11 7 10 9 9 9 9 9 9 11 9 7 13 16 12 7 5 5 6 6 8 9 8 7 8 10 9 7 9 11 15 17 10 11 13 17 21 22 23 23 22 22 20 19 17 14 16 16 16 16 16 16 15 14 13 14 14 14 15 15 15 15 15 15 15 16 16 15 15 15 14 14 15 16 10 8 8 10 9 8 7 7 7 8 9 10
10 7 9 9 9 9 9 12 12 18 14 17 5 11 13 9 9 8 10 6 6 6 6 8 9 11 13 8 6 7 12 15 17 18 16 16 17 20 20 21 21 23 22 21 19 17 16 17 18 18 16 15 15 12 13 13 12 14 14 15 15 14 15 15 15 17 14 15 12 11 9 10 11 11 14 12 11 10 10 10 8 7 8 8 8 9
8 10 7 8 5 8 11 12 13 17 16 9 6 9 14 11 8 10 7 8 6 7 8 7 10 12 8 8 6 10 14 14 19 19 19 17 18 18 19 19 19 20 21 20 19 19 18 17 16 14 15 11 11 12 13 13 11 10 10 12 13 13 13 13 14 15 12 10 12 12 13 12 10 13 13 12 11 11 9 10 8 7 9 10 8 8
7 10 13 11 11 10 10 7 18 20 15 6 12 14 13 12 11 8 6 7 5 7 7 5 11 12 9 8 8 7 6 8 10 9 14 18 19 19 20 19 17 17 17 18 18 15 14 13 13 10 11 11 10 8 8 10 11 11 11 11 12 11 10 11 12 11 11 11 12 12 12 14 13 13 12 11 12 10 8 10 8 7 8 9 9 8
8 7 6 9 12 9 10 9 7 7 7 14 9 15 11 13 9 8 11 6 8 5 8 7 8 8 16 8 5 6 8 7 11 11 7 8 12 14 15 18 19 19 19 19 17 13 12 10 11 12 13 12 10 10 10 11 11 12 12 12 12 11 10 11 11 11 11 10 9 12 12 15 16 14 14 14 12 11 9 10 8 7 8 8 9 8
6 6 7 11 5 9 9 12 7 8 8 9 9 10 12 10 11 10 9 9 9 11 7 7 6 7 15 10 7 10 9 8 10 14 15 14 10 13 13 17 18 17 17 16 16 14 14 13 12 13 13 14 13 12 13 12 12 12 12 12 13 11 10 10 10 10 11 11 10 10 12 14 14 15 14 15 15 13 12 10 10 8 9 10 9 7
10 16 8 9 7 9 9 14 8 6 6 8 11 11 12 8 8 11 9 13 16 12 9 7 5 7 8 6 9 12 11 12 9 14 16 16 18 13 13 15 16 15 15 15 15 15 16 17 17 17 16 16 15 16 16 15 13 13 13 13 13 12 11 11 13 13 13 12 11 12 13 12 12 12 12 12 13 11 12 10 9 9 10 10 10 8
11 8 7 8 5 8 11 14 13 11 10 10 15 11 13 11 9 8 7 7 11 12 8 6 5 8 9 8 9 12 12 12 13 13 13 14 15 17 12 11 13 12 13 15 16 16 16 16 16 15 16 17 15 14 15 14 12 12 12 13 13 13 15 18 19 18 18 16 13 10 10 10 11 11 11 12 13 11 10 10 9 9 10 11 10 9
8 9 12 10 12 7 14 15 18 12 19 14 6 16 13 17 18 12 15 15 15 11 7 6 11 13 17 10 9 11 11 12 12 12 10 8 9 10 8 10 14 13 12 14 14 14 12 12 13 20 19 20 11 11 11 11 11 11 11 12 13 25 26 24 21 20 18 16 14 13 11 11 12 13 13 13 14 14 11 9 9 7 8 11 10 9
6 13 10 6 5 6 12 7 10 13 12 6 8 10 14 14 14 14 9 10 11 11 9 11 11 7 8 8 9 9 10 9 12 14 13 12 12 14 16 16 17 18 18 17 17 17 16 15 19 24 27 25 23 17 10 8 10 10 11 12 23 29 28 23 21 19 18 17 19 15 13 13 11 9 10 11 10 11 11 11 10 9 8 11 11 10
6 10 5 9 6 5 7 8 8 8 20 14 12 16 9 10 19 15 5 7 3 6 11 6 10 8 10 7 6 6 9 11 11 13 13 12 13 16 18 18 19 20 21 19 18 16 15 11 15 16 15 13 13 13 9 9 9 10 12 23 28 25 25 20 22 22 20 19 18 14 14 12 12 12 11 12 12 13 11 10 8 8 9 11 11 11
12 9 6 4 5 6 5 6 8 11 9 21 14 15 11 8 10 14 12 6 6 12 11 7 3 9 12 13 10 10 12 12 13 13 13 13 13 17 17 19 20 20 18 18 18 18 18 14 12 13 12 8 8 8 9 9 9 9 10 26 30 27 21 20 18 17 15 15 15 16 13 11 12 11 11 10 12 12 13 11 10 8 10 11 12 12
8 9 5 5 5 8 9 6 13 9 10 9 7 15 16 10 11 8 16 7 11 12 9 7 6 9 9 8 11 13 16 15 14 12 13 13 14 15 15 17 20 20 17 13 14 17 17 15 10 10 11 9 11 11 10 11 12 11 10 15 22 20 16 16 18 20 19 17 17 15 14 13 12 11 12 10 11 11 12 13 13 12 10 10 11 14
6 11 11 4 5 7 7 8 15 7 10 10 10 13 8 7 8 15 13 11 17 10 6 7 8 12 7 8 13 14 14 14 12 8 12 11 13 14 11 9 11 14 14 12 12 14 13 12 12 12 14 13 11 10 9 9 10 12 12 14 15 16 15 17 18 18 20 14 10 9 10 9 11 11 13 13 13 12 12 13 14 14 11 12 10 10
9 5 10 5 7 6 14 8 9 10 12 9 10 7 7 8 7 11 8 7 13 17 12 12 11 13 8 10 13 16 16 15 11 8 11 11 11 11 11 10 11 11 11 14 15 15 15 13 15 16 14 13 13 13 11 11 12 12 12 12 14 17 17 16 15 17 15 13 13 12 13 13 12 12 11 11 12 10 10 10 9 10 11 12 10 10
13 8 14 6 5 6 8 7 7 8 7 10 16 15 12 16 16 15 12 7 6 14 14 15 15 9 8 12 12 15 16 15 10 7 12 12 13 13 13 13 13 13 14 16 18 17 13 14 14 14 14 12 11 12 14 14 15 13 13 14 14 14 15 15 14 14 13 12 13 14 13 14 12 11 11 11 11 8 9 11 11 9 8 11 12 10
9 11 11 6 5 5 6 7 6 7 7 7 7 10 8 6 12 11 12 11 7 7 8 8 9 7 11 12 13 13 14 12 8 10 15 14 14 14 14 14 14 13 11 13 14 16 16 16 17 16 12 11 11 10 11 11 14 13 12 12 12 15 14 14 14 12 12 13 12 13 12 12 13 13 12 12 11 10 9 10 11 12 10 10 12 11
7 11 11 6 5 8 8 6 6 9 6 7 13 8 6 9 6 10 6 11 15 9 9 7 11 10 10 14 13 12 11 11 12 11 16 16 14 15 15 13 13 13 14 15 15 16 18 19 19 17 15 15 14 11 9 9 10 12 11 10 11 12 12 12 11 11 10 10 10 8 9 10 10 12 12 12 11 11 10 11 11 13 13 11 12 14
13 10 12 9 9 8 7 7 7 7 11 9 6 7 9 8 10 7 10 6 11 12 8 16 16 9 9 13 13 15 14 17 16 15 13 17 15 15 14 13 13 14 18 20 20 21 22 23 22 19 17 15 15 13 12 11 10 9 9 9 10 10 9 10 10 11 12 10 10 9 9 10 10 11 11 11 10 10 11 12 12 13 15 14 13 14
13 6 11 17 18 16 18 14 13 9 7 4 5 8 9 7 14 11 8 10 12 9 7 11 8 10 9 12 16 18 15 15 16 14 15 16 15 15 15 15 16 17 19 18 19 21 21 19 18 17 16 18 17 16 16 16 15 12 9 7 8 8 8 9 10 12 11 11 12 12 11 11 12 14 12 11 10 12 12 12 13 14 14 15 15 14
12 6 11 9 14 13 8 7 6 6 4 9 6 10 11 9 12 11 11 11 14 9 10 7 9 16 8 17 17 18 17 16 16 17 17 16 16 16 15 16 16 17 18 19 17 17 18 20 18 18 19 18 17 17 18 16 16 13 10 10 10 10 8 8 9 11 12 12 13 13 13 12 12 13 12 12 12 12 14 14 14 15 16 16 17 16
11 10 11 11 17 11 5 7 8 6 9 9 9 10 9 10 9 8 6 10 9 16 9 8 5 13 9 11 13 14 15 15 16 15 15 16 16 16 15 16 16 22 22 21 21 21 21 18 19 20 20 21 20 18 17 16 16 15 13 10 10 10 9 8 8 9 11 11 12 13 13 12 11 12 12 11 12 14 15 15 16 17 17 17 18 17
14 8 7 9 12 12 10 12 12 17 13 9 7 8 13 14 12 10 6 7 6 6 9 11 10 13 10 10 10 12 13 15 16 18 15 14 17 18 21 23 23 23 23 24 22 21 21 22 20 21 21 21 20 19 17 17 16 14 12 10 9 8 8 8 9 9 10 10 12 12 11 10 10 11 12 13 14 15 15 16 16 17 18 18 19 16
19 6 8 8 10 10 12 11 9 14 8 11 14 13 9 14 13 12 12 10 10 12 13 19 19 17 11 9 10 10 10 12 14 13 17 20 20 20 22 23 23 23 23 23 22 21 21 22 21 21 21 21 21 20 20 18 16 14 13 13 12 10 10 9 8 8 9 10 11 10 10 11 10 12 11 12 14 15 15 15 14 14 15 15 13 10
11 13 12 9 8 6 8 9 7 9 10 10 9 10 10 9 16 15 15 14 18 18 13 16 21 15 10 7 9 9 8 10 18 23 21 18 19 21 24 24 23 23 22 22 22 22 22 22 22 21 22 21 20 18 18 16 15 14 14 13 12 12 12 11 10 9 9 10 9 9 9 9 9 9 11 10 10 10 12 12 11 11 11 12 12 11
10 11 7 10 12 8 6 4 9 11 12 10 8 7 8 9 5 5 6 6 7 16 11 14 14 13 11 10 11 10 13 19 22 19 19 18 19 22 24 24 23 22 21 21 21 21 22 22 22 22 21 20 19 18 17 17 17 18 18 15 15 14 13 12 11 12 11 10 10 9 9 9 9 9 9 8 9 8 9 9 11 13 13 13 14 14
9 22 18 12 12 9 6 7 9 10 8 12 10 5 5 6 6 10 9 8 9 7 18 12 10 15 17 11 15 15 18 19 18 17 18 19 20 21 21 21 20 19 19 20 20 20 20 19 19 18 18 18 19 19 17 16 17 17 16 14 12 13 15 15 13 12 12 13 12 11 9 8 9 9 9 10 10 10 11 11 11 12 13 14 14 13
7 18 15 10 15 8 9 9 8 12 10 14 10 10 7 7 7 8 8 10 9 6 6 9 21 17 14 12 16 16 19 17 16 14 13 14 16 19 20 19 19 19 19 19 19 19 18 19 19 19 18 17 17 16 13 14 15 12 11 13 13 15 14 14 14 14 13 12 11 12 12 11 10 10 8 8 9 9 11 12 13 12 12 12 12 15
8 9 9 7 14 12 12 14 12 11 15 11 13 7 10 8 16 21 17 15 13 14 19 22 19 17 15 14 16 17 17 15 15 16 17 15 15 16 18 19 18 18 18 18 19 19 18 17 17 18 18 18 16 15 16 18 16 13 15 16 16 15 15 13 14 13 11 12 11 9 10 12 12 12 10 9 8 8 9 11 10 10 11 12 15 17
8 10 11 9 9 11 11 16 18 14 10 10 9 10 11 14 11 17 20 15 12 11 10 20 18 18 17 16 15 15 17 15 16 16 15 14 15 15 18 17 17 17 18 16 15 16 16 16 15 14 15 14 14 17 18 17 16 16 15 14 15 14 15 15 14 14 12 12 11 10 8 9 10 11 10 10 10 11 11 12 13 14 13 11 14 14
10 10 9 11 7 16 11 7 5 10 8 8 9 11 10 10 7 5 11 7 8 7 7 19 17 15 15 13 13 10 7 7 16 17 16 16 15 14 15 16 15 15 14 14 13 13 12 12 14 13 13 14 15 18 18 17 16 15 16 16 15 14 14 13 14 13 13 13 13 11 9 9 9 10 10 9 10 12 13 12 14 13 13 15 16 16
8 4 8 11 11 6 12 10 8 6 11 14 9 7 5 5 6 6 12 10 6 7 5 10 15 12 11 8 8 6 5 6 13 12 13 15 15 13 13 13 14 14 14 13 13 13 14 13 13 12 12 13 14 17 16 15 16 15 14 15 15 14 14 14 15 14 13 14 14 14 12 9 8 8 8 8 11 11 11 10 9 11 12 13 13 13
11 15 9 6 12 8 8 15 18 18 15 9 8 7 6 7 8 8 7 14 9 6 6 9 11 8 6 8 8 9 9 8 9 9 12 13 14 14 14 14 14 13 14 15 16 17 17 16 15 15 16 17 19 20 18 16 15 16 15 13 15 15 15 15 15 14 15 14 14 13 13 12 10 10 9 9 9 7 8 9 9 7 8 8 9 11
14 10 7 8 6 6 11 12 12 15 11 5 7 8 10 7 9 8 11 15 13 6 7 8 11 10 8 7 8 9 8 7 10 9 10 11 10 12 14 15 16 16 16 16 16 16 15 16 18 19 19 18 18 18 19 18 18 15 15 15 13 14 15 16 16 17 15 15 14 12 12 10 10 9 10 11 9 8 8 7 8 9 9 8 9 11
10 7 10 7 7 4 5 6 6 9 9 7 8 10 9 8 7 14 16 14 12 9 9 9 10 9 8 9 6 10 10 12 11 8 8 10 11 12 12 12 12 12 14 15 16 13 15 15 15 16 17 17 18 18 17 17 18 18 16 15 15 15 16 18 18 17 17 17 15 14 14 12 10 10 9 9 10 9 9 9 10 9 10 12 11 11
8 5 4 5 6 6 5 8 8 5 6 8 9 8 8 9 15 11 11 6 12 11 8 7 10 9 10 12 12 13 11 9 9 9 11 12 11 10 11 12 12 12 12 11 12 15 17 16 15 15 16 16 19 19 19 19 19 18 18 17 17 16 17 18 18 18 18 19 20 18 14 12 11 9 7 6 7 9 11 11 10 9 9 10 12 13
8 5 4 5 6 5 5 8 7 12 7 9 11 8 7 6 8 15 15 8 7 11 11 9 9 9 7 11 9 8 7 9 9 10 9 9 11 13 13 14 16 17 18 18 18 18 19 18 18 18 17 17 16 16 17 17 18 19 19 19 18 18 18 17 17 17 18 18 19 19 18 14 11 10 8 7 7 8 9 8 10 10 11 13 12 13
8 5 5 5 6 6 7 13 13 10 9 10 8 6 8 14 15 10 12 14 9 8 10 10 9 8 8 9 8 8 8 8 9 10 10 11 12 12 12 13 14 14 15 15 15 16 17 17 18 20 18 18 17 17 16 16 18 18 19 21 19 18 17 17 17 17 17 16 17 18 18 17 14 10 11 9 8 7 8 8 9 10 10 10 14 14
15 8 8 7 7 4 5 9 7 6 9 13 13 18 14 12 9 7 11 11 11 10 6 10 10 9 8 8 8 8 9 10 9 8 11 11 12 12 13 14 14 15 15 16 17 16 16 17 18 19 19 18 17 16 16 15 17 19 21 21 19 20 19 19 19 18 18 18 18 17 17 17 16 13 12 12 9 10 10 10 11 11 9 9 8 13
8 8 7 13 12 13 15 12 7 8 10 14 14 13 14 13 12 11 10 11 9 8 7 8 8 8 9 7 8 8 8 6 7 8 8 9 10 11 10 12 12 12 13 14 15 16 17 18 18 18 20 20 17 18 16 16 17 20 22 21 21 21 21 20 19 19 19 19 18 18 18 17 18 17 12 9 10 11 14 13 11 14 14 9 9 9
6 5 6 14 11 8 9 7 7 8 7 8 9 9 9 8 7 6 7 7 6 7 8 8 8 8 8 9 9 7 7 6 8 8 8 9 11 12 12 13 13 14 15 16 17 18 20 19 20 20 20 22 20 19 19 18 19 20 20 20 21 22 22 21 21 20 19 19 19 17 17 16 17 18 16 9 10 12 12 12 14 14 16 18 15 9
8 6 15 10 9 5 9 14 8 6 6 5 6 8 8 7 8 9 8 8 8 9 8 7 7 9 7 9 8 9 9 9 10 12 12 13 14 15 15 15 17 17 16 17 19 19 20 21 21 23 24 25 24 23 23 23 23 23 24 24 23 22 22 23 22 21 21 20 18 18 17 18 10 15 19 15 10 12 14 13 12 15 18 17 19 20
7 7 6 7 10 11 10 8 6 7 6 7 7 5 7 8 10 10 9 10 9 10 10 10 10 8 8 8 7 9 11 12 11 11 14 15 15 14 16 19 19 19 20 21 21 20 21 21 22 22 24 26 25 25 25 24 25 25 24 24 23 23 24 25 22 23 23 22 20 20 17 17 17 17 16 15 8 8 9 10 14 15 14 10 8 12
7 11 9 10 13 9 11 14 15 11 6 14 10 8 9 6 8 10 9 9 9 10 8 9 7 7 7 6 8 8 12 13 13 11 14 15 15 17 18 20 21 22 22 22 23 22 22 20 21 23 25 26 24 24 25 25 26 25 25 24 24 23 25 25 26 24 24 23 21 21 19 17 18 16 16 14 12 8 8 5 7 8 10 9 3 5
6 10 13 8 11 8 10 13 13 8 8 6 10 11 8 7 7 8 8 9 9 8 8 8 7 6 6 5 7 8 11 13 13 13 16 17 19 19 20 21 23 24 24 23 22 21 21 22 23 24 24 25 25 25 25 26 26 26 26 26 25 24 24 24 25 26 27 24 23 21 19 18 18 18 16 15 15 11 11 9 8 4 4 5 5 4
Wind_Speed
0 4 4 5 4 6 4 5 2 4 3 5 3 3 2 3 5 6 5 3 3 2 6 7 10 8 7 6 11 12 11 10 10 11 9 10 11 11 12 12 11 11 9 7 8 8 9 9 8 8 7 7 6 6 9 9 10 11 10 10 10 8 8 7 7 7 7 6 5 4 5 3 3 3 4 3 2 1 1 1 1 1 1 1 2 2
2 3 5 6 7 6 5 6 7 6 1 3 3 2 2 3 4 2 3 2 2 4 1 2 3 8 1 0 6 10 11 13 13 12 11 10 10 10 13 12 11 9 5 5 5 6 8 8 9 8 7 7 9 7 8 9 11 11 10 10 8 8 8 8 8 7 7 7 6 5 5 3 4 4 4 4 3 2 1 1 1 1 2 2 2 2
3 5 5 8 4 6 6 5 3 5 5 3 3 2 2 4 5 8 2 2 2 2 4 1 4 0 2 0 5 10 10 7 8 9 9 9 9 10 10 11 10 8 10 6 7 7 8 9 10 9 7 7 8 8 8 8 8 9 10 10 8 8 9 8 8 8 6 5 3 2 4 4 4 2 2 3 4 3 2 1 1 2 1 2 2 3
4 5 10 4 7 8 4 4 6 5 2 3 3 2 5 2 1 3 2 2 3 1 2 3 4 2 3 3 3 5 9 2 2 7 8 9 10 10 11 10 10 11 10 10 8 7 7 8 9 8 8 7 7 7 7 7 8 7 7 7 7 7 7 7 8 6 5 6 4 4 5 5 4 5 4 5 4 4 3 2 1 0 1 3 3 3
4 2 3 8 5 6 5 3 6 4 5 2 4 4 3 3 4 3 2 1 2 2 1 7 3 2 2 4 4 2 2 3 2 4 4 8 9 8 8 9 10 12 11 10 9 8 8 8 9 9 8 7 8 8 8 7 7 5 8 8 8 7 7 6 7 7 7 8 7 6 7 7 8 6 5 5 4 3 3 2 1 1 1 3 4 3
7 3 6 7 3 3 6 3 6 7 3 3 6 10 9 5 3 4 2 3 2 2 4 3 2 3 2 1 4 5 4 8 2 6 9 8 9 11 11 12 11 10 10 11 11 10 8 8 8 8 8 8 8 8 8 7 7 7 7 8 8 6 6 7 8 9 8 8 9 9 8 8 6 6 6 6 6 5 3 2 1 1 1 2 4 3
3 4 6 5 5 5 5 4 4 6 4 3 5 10 7 2 1 0 2 2 3 2 2 2 2 2 2 2 4 5 8 10 5 6 7 10 11 12 13 12 12 12 11 11 11 8 9 9 9 9 9 9 8 7 6 7 8 8 8 8 8 8 7 7 8 10 8 8 7 8 7 7 7 7 4 2 3 4 3 2 2 2 1 2 3 3
4 3 5 4 5 4 4 5 6 11 6 6 1 6 8 5 5 4 3 1 1 2 1 3 2 2 5 2 1 1 6 8 10 10 9 8 10 12 11 12 13 13 13 12 12 10 9 10 11 11 9 8 7 6 7 7 6 8 8 8 8 7 7 7 8 9 7 7 6 5 4 4 5 5 6 5 4 4 3 3 2 2 2 2 2 3
5 5 4 4 2 3 4 5 7 11 6 1 2 5 8 6 3 5 1 3 1 2 3 1 4 3 1 3 1 4 7 8 11 11 11 9 10 11 11 10 11 12 12 12 10 11 10 10 9 8 8 6 5 5 6 6 5 4 5 6 7 6 6 6 7 8 6 4 6 5 5 5 4 6 6 5 4 4 3 5 2 2 3 3 2 2
3 5 7 6 5 4 4 2 10 12 7 1 6 8 7 6 5 1 2 2 1 2 2 1 5 3 2 1 2 1 1 2 1 2 8 10 11 11 11 11 10 10 10 10 10 8 8 7 7 5 5 6 4 3 3 4 5 5 5 5 6 5 4 5 6 5 6 5 5 5 5 8 6 5 5 4 5 4 3 4 3 2 2 3 3 2
3 2 2 3 5 3 4 4 1 1 3 8 4 8 5 5 3 2 4 1 3 1 1 3 3 2 5 3 0 1 2 2 5 4 1 2 5 7 8 10 9 10 10 10 9 7 6 5 6 6 7 6 5 4 5 5 5 5 6 6 7 6 4 5 6 6 5 4 2 3 6 9 9 7 7 7 5 4 4 4 3 2 2 2 3 2
1 2 2 3 2 4 4 6 3 3 4 4 2 3 5 4 2 2 2 2 2 3 3 2 2 3 5 3 2 2 3 2 4 7 8 7 4 5 6 9 10 10 9 8 8 7 7 7 6 7 7 8 7 7 7 6 6 6 6 6 7 6 5 5 5 5 5 4 4 4 6 8 7 8 7 7 8 6 6 4 3 2 3 3 3 2
4 7 1 4 2 4 4 7 2 1 0 2 4 4 5 2 0 2 1 4 5 2 3 1 0 2 3 2 3 6 5 6 4 6 7 9 10 7 6 8 8 7 7 7 7 8 8 9 9 10 10 9 9 9 9 8 7 6 7 7 8 7 5 5 7 7 7 6 5 3 4 4 4 4 5 6 6 5 5 4 4 3 4 4 4 2
3 1 2 3 0 3 6 5 5 4 4 3 6 4 5 3 2 1 1 2 3 3 2 0 0 2 3 2 2 5 6 6 6 6 6 7 9 9 4 4 6 5 6 7 8 8 8 8 8 8 9 9 8 8 8 7 6 5 6 7 7 8 9 11 11 10 10 8 5 2 3 4 5 5 5 5 6 5 4 4 4 3 4 4 4 3
3 3 4 5 4 3 6 7 9 4 9 5 3 6 5 6 4 3 4 4 5 3 2 1 4 3 8 3 2 4 5 6 6 5 5 3 3 4 2 4 7 7 5 5 5 5 5 5 8 10 11 10 5 2 5 5 5 5 5 6 7 14 15 13 11 10 10 8 8 8 6 4 2 2 2 3 6 7 5 3 3 2 2 4 4 3
1 3 2 1 2 1 6 0 4 6 5 1 1 3 4 4 3 5 1 2 3 3 1 3 1 1 1 1 3 4 4 4 6 8 7 6 5 6 8 8 8 9 9 9 9 9 9 8 8 8 8 9 11 11 3 3 4 5 5 7 14 17 13 11 10 11 10 10 10 9 8 7 6 4 4 4 4 4 5 5 4 3 2 4 5 3
1 2 2 3 2 2 3 2 1 1 6 5 4 6 1 4 7 5 2 2 1 1 2 2 2 1 1 1 1 1 1 5 6 7 6 6 6 8 9 9 10 10 11 10 10 8 8 6 5 6 10 5 5 7 4 3 4 5 6 12 17 14 9 13 14 12 7 4 3 7 8 7 8 7 5 6 6 6 5 4 3 3 3 5 5 5
3 2 1 1 2 3 0 2 4 5 0 8 5 6 5 1 3 2 3 1 0 3 2 1 1 1 4 3 1 3 3 4 4 5 5 5 6 9 8 10 11 11 11 11 10 11 10 8 7 7 6 6 1 4 1 4 4 4 5 15 17 13 13 8 8 9 7 9 8 7 7 5 5 4 4 4 6 6 6 5 4 2 4 5 5 5
2 3 1 2 1 2 3 3 7 5 5 2 1 8 5 2 5 2 3 1 3 3 1 2 0 2 3 2 3 5 8 8 7 6 6 6 7 8 8 10 12 12 9 6 6 6 6 8 6 4 6 5 2 1 4 5 5 5 5 9 13 12 9 10 10 11 8 8 6 5 7 7 6 5 6 5 5 5 6 6 6 6 4 4 5 6
2 3 3 0 2 2 2 1 5 2 5 5 5 5 3 2 2 5 1 1 5 3 1 2 2 3 1 2 6 7 7 7 6 3 6 5 7 7 4 3 5 7 7 5 5 6 5 5 7 7 6 6 4 4 4 5 5 6 6 8 9 9 9 10 11 10 9 7 5 4 4 5 5 6 6 6 6 5 6 6 6 7 5 6 4 5
2 1 2 1 3 1 5 3 2 4 5 3 4 1 2 3 2 2 3 1 4 3 3 2 3 3 2 3 6 9 9 8 5 2 4 5 5 5 5 4 5 5 5 5 6 7 7 6 8 9 8 7 6 5 4 5 6 6 5 6 8 10 10 10 8 9 7 6 6 6 6 5 6 7 5 6 6 4 4 4 3 4 4 6 5 4
3 1 4 1 1 2 2 2 3 3 1 2 6 6 5 7 7 7 4 2 1 3 3 4 4 3 2 4 5 7 8 7 4 1 5 6 7 6 6 7 7 7 8 9 10 9 7 4 5 7 8 6 5 5 6 6 6 7 6 6 6 7 7 8 7 7 6 6 6 7 6 7 6 5 4 5 5 4 4 5 5 4 3 4 5 4
2 3 4 1 1 1 2 3 2 2 2 1 2 3 3 1 3 3 3 4 1 1 1 1 1 2 4 5 5 6 6 5 2 4 7 7 8 7 7 8 8 8 6 6 7 9 8 8 9 9 7 6 5 4 4 5 6 5 5 5 5 6 6 6 7 5 5 6 6 7 6 6 6 6 7 6 5 5 4 4 6 6 4 3 4 5
2 2 4 2 0 2 3 2 2 3 1 1 6 3 1 3 2 2 0 4 4 3 3 1 2 2 4 7 6 6 5 5 5 5 9 8 7 8 9 7 7 7 6 7 8 8 9 10 11 9 8 8 7 5 4 3 4 5 4 4 4 5 6 5 5 4 4 4 4 4 4 4 4 6 6 6 4 5 5 5 5 6 6 5 4 6
1 4 3 3 1 0 0 1 1 0 3 3 2 3 4 2 5 3 5 1 2 5 1 6 5 2 3 5 6 7 7 8 8 8 7 9 8 8 7 7 6 8 10 12 12 12 13 14 13 10 9 7 6 6 5 5 4 3 2 3 4 4 3 4 4 4 5 4 4 3 3 4 4 5 5 5 4 5 5 6 6 6 7 7 6 7
4 2 1 4 6 6 6 4 3 3 2 1 1 2 4 3 5 5 2 3 3 3 2 3 1 3 4 6 8 10 8 8 8 7 8 8 8 8 7 8 8 9 10 11 11 13 13 10 9 9 6 7 8 8 7 8 7 5 3 1 2 1 1 3 3 4 4 4 5 5 5 5 6 7 6 5 5 6 6 6 6 7 6 8 7 7
3 1 5 3 3 3 3 1 2 2 0 3 3 6 6 3 5 2 4 2 4 4 3 1 0 8 1 8 9 9 8 8 8 9 8 8 9 8 8 8 8 8 10 11 10 9 10 11 10 9 8 9 9 9 9 8 8 6 5 4 4 3 2 1 2 3 4 5 6 6 6 6 6 6 6 6 5 6 6 7 7 8 8 8 9 8
4 3 7 6 11 5 1 3 4 2 5 4 3 5 4 6 4 3 1 2 4 7 2 3 1 7 3 5 6 7 7 7 8 8 8 8 8 8 8 9 11 13 13 12 12 13 12 11 11 11 11 12 11 10 9 8 8 7 6 5 4 4 3 2 2 3 4 4 5 6 5 5 5 5 5 5 5 6 7 7 8 9 8 9 9 9
6 3 4 2 7 7 5 7 7 9 7 4 3 3 7 7 8 5 3 3 2 1 1 6 5 7 3 4 5 6 6 8 9 9 8 7 9 10 12 14 14 14 14 14 13 12 13 13 12 12 13 12 12 12 10 9 8 7 6 5 3 2 2 2 3 3 3 4 5 5 4 3 4 5 5 6 7 7 8 8 8 9 9 9 10 8
6 1 4 4 5 6 6 6 5 9 4 6 8 7 4 8 7 7 6 5 3 7 7 11 12 10 5 3 4 4 4 6 6 6 9 11 11 12 13 14 14 14 14 14 13 13 13 13 13 13 13 13 12 12 11 9 8 7 7 6 5 4 4 3 2 2 2 4 4 4 4 4 4 5 5 6 7 7 7 7 7 7 8 8 6 4
3 2 6 4 3 2 4 6 4 6 6 6 4 5 5 4 9 9 9 8 12 10 7 10 12 9 3 2 4 4 3 4 9 13 12 11 11 13 14 14 14 14 14 14 13 13 13 13 13 13 13 12 12 11 10 8 7 7 7 6 5 5 5 4 4 3 3 4 3 3 2 3 3 3 4 4 4 4 5 5 4 5 5 5 6 5
4 3 2 2 4 2 1 1 5 7 7 5 2 1 3 4 2 2 2 2 1 9 6 8 6 5 4 4 5 4 6 11 13 11 11 10 11 13 15 14 14 13 13 12 12 12 13 14 13 13 13 12 11 10 9 8 9 9 9 7 7 6 5 5 5 5 5 4 3 3 2 2 3 3 3 2 2 2 2 3 5 6 6 6 7 7
2 9 6 5 4 2 3 4 5 4 3 5 5 2 2 3 2 5 4 4 4 0 9 5 4 7 8 5 8 8 10 11 10 9 10 11 11 12 13 12 12 11 11 11 12 12 12 11 11 11 11 10 10 10 10 8 8 8 8 7 5 5 7 7 6 5 5 5 5 4 3 2 2 3 3 3 3 4 4 4 5 6 7 7 7 7
2 9 5 4 3 2 5 5 4 4 4 3 4 4 3 3 2 4 3 5 4 2 1 3 11 10 8 6 9 9 11 9 8 7 7 7 8 11 12 11 11 11 11 11 11 11 11 10 10 10 10 10 10 9 7 7 7 5 5 6 6 8 6 7 7 6 6 5 4 5 5 4 3 3 2 2 3 4 5 5 6 6 6 6 6 7
4 3 3 1 3 4 5 7 5 3 4 5 6 2 4 2 10 13 10 9 7 8 12 14 11 10 9 8 9 10 10 8 8 9 10 8 8 9 10 11 11 10 11 11 12 11 10 10 10 11 11 10 9 9 9 9 8 6 8 8 8 8 7 6 7 6 5 5 4 3 4 5 5 5 4 3 3 2 3 5 5 4 4 5 7 8
3 3 2 3 2 3 3 5 4 3 5 5 4 5 7 8 7 11 12 9 7 5 5 11 11 10 10 10 8 8 10 9 9 9 8 8 8 8 10 9 9 10 10 8 9 9 10 9 9 8 8 7 7 9 9 9 8 8 7 7 7 6 7 7 6 6 5 5 5 4 2 3 3 4 4 4 4 4 5 4 5 5 5 5 7 7
4 4 1 3 2 3 2 2 1 4 2 3 4 5 2 3 2 1 4 3 4 3 2 11 10 9 8 8 7 5 3 2 8 8 9 9 8 8 8 9 8 8 7 8 7 7 7 7 8 7 7 7 8 10 9 9 9 8 8 8 7 7 6 7 7 7 6 6 6 5 3 4 4 4 4 3 4 5 6 5 6 6 5 7 8 7
1 1 0 2 0 1 3 3 1 1 2 5 3 3 1 1 2 2 4 4 2 2 1 5 9 7 6 4 4 2 1 1 5 4 6 8 8 8 7 7 7 7 7 7 7 7 8 7 7 6 6 7 7 9 8 8 8 7 7 8 7 7 7 7 7 7 6 7 7 7 6 3 3 3 3 3 5 5 4 4 3 4 5 6 6 6
5 7 3 0 3 2 1 3 3 4 1 3 4 1 2 2 3 3 1 5 3 1 1 4 6 3 2 4 3 4 3 2 3 3 5 6 7 7 7 7 7 7 7 8 8 9 9 9 8 8 9 10 11 11 10 9 8 8 7 6 7 8 8 7 7 7 7 7 6 6 5 5 4 4 3 4 4 3 3 3 3 1 2 2 3 4
7 3 1 2 2 1 1 2 3 2 2 2 3 4 4 2 4 3 3 4 6 2 2 3 6 5 3 2 3 4 2 2 3 3 4 5 4 5 7 7 8 8 8 8 8 8 8 9 10 11 11 10 11 11 11 11 9 8 7 7 6 7 7 8 8 8 8 7 7 5 5 4 4 3 4 5 3 3 3 2 3 3 3 2 2 3
4 3 4 2 2 1 2 1 2 0 1 2 3 5 4 3 2 5 5 5 5 4 3 4 5 4 3 4 1 3 4 5 4 3 3 4 5 6 6 6 5 6 7 8 8 8 7 7 7 8 9 9 10 10 9 9 9 9 8 8 7 8 8 9 9 9 9 9 8 7 7 5 4 4 3 3 4 3 3 4 4 4 4 5 4 4
3 2 1 2 2 2 1 2 1 1 0 3 3 4 3 3 5 3 4 1 6 6 3 2 5 4 4 6 5 5 4 3 4 4 5 5 5 4 5 6 6 6 5 5 7 8 8 8 8 8 8 8 9 10 10 10 10 10 9 9 9 9 8 9 9 9 9 10 11 10 7 6 5 3 2 1 2 3 4 4 4 4 4 4 5 6
3 1 1 1 2 1 1 2 1 3 2 4 5 1 2 1 2 5 7 3 2 5 5 3 3 3 2 5 4 3 3 3 4 4 4 3 5 6 6 8 9 9 10 10 10 10 10 9 9 9 9 8 9 8 8 9 10 10 10 10 11 9 8 8 8 8 9 9 10 10 10 7 5 4 2 1 2 3 4 2 4 4 4 6 6 7
3 0 1 1 1 0 1 2 0 3 3 5 3 1 2 6 6 4 5 6 3 3 4 4 4 3 3 3 3 3 3 3 3 4 4 5 6 6 6 7 7 8 8 8 8 9 10 9 9 10 10 9 8 8 8 8 9 9 10 12 10 9 9 9 8 9 9 8 9 9 9 9 7 4 4 3 3 2 3 3 4 4 4 4 6 6
7 2 2 1 2 1 1 3 2 1 3 6 6 9 7 6 3 2 5 5 4 4 1 3 4 4 3 3 3 3 3 4 4 3 5 5 6 6 7 7 7 8 8 9 9 9 8 9 10 10 11 9 9 8 8 7 9 11 13 12 10 10 10 10 10 9 9 9 9 8 8 9 8 6 5 5 4 4 4 4 4 4 3 4 3 5
3 3 1 5 5 7 8 6 3 3 4 8 7 6 7 7 6 6 5 5 4 3 3 3 3 4 4 3 3 3 3 2 3 3 3 4 5 5 5 5 6 6 6 7 8 9 9 9 10 10 11 11 10 9 8 8 8 11 12 11 11 11 11 10 10 9 10 9 9 9 9 9 10 9 6 3 3 4 5 6 5 3 2 2 1 3
1 1 1 4 5 1 3 2 2 3 2 4 4 4 5 4 3 3 3 3 3 3 4 4 3 4 4 4 5 3 2 2 2 2 2 3 5 6 6 6 6 7 8 9 9 10 10 10 10 11 12 13 11 10 9 10 9 10 11 11 11 11 11 11 11 11 10 9 9 9 8 8 8 8 8 4 3 5 5 5 6 7 6 8 6 3
3 1 6 4 3 1 3 7 3 1 1 1 1 2 3 2 4 4 3 4 4 4 4 3 2 4 3 4 4 4 4 4 5 6 5 5 6 6 6 7 8 9 9 9 11 11 11 11 12 13 13 13 12 12 12 12 12 12 13 13 12 12 12 12 12 11 11 11 9 8 8 8 7 8 8 7 3 4 6 6 5 7 8 8 8 7
1 3 1 2 3 4 5 3 1 3 1 2 2 0 2 3 4 5 4 5 4 5 5 5 4 3 3 3 2 4 6 6 5 5 7 7 7 7 8 10 10 11 11 11 11 10 10 11 12 13 14 14 13 13 13 14 13 13 14 13 12 12 13 13 13 13 13 11 9 9 8 7 8 8 7 7 3 1 2 3 6 7 6 5 3 4
2 4 3 4 5 3 3 6 8 4 2 6 4 4 4 1 3 4 4 4 4 4 3 4 3 2 2 2 3 3 6 7 6 5 7 7 8 10 10 11 11 11 11 11 10 11 11 11 11 13 14 13 13 13 13 14 14 14 13 13 13 13 13 13 13 13 13 11 10 10 9 8 8 8 7 6 5 2 2 4 5 5 4 2 1 3
1 4 5 2 3 2 3 7 7 2 3 1 4 6 3 2 2 3 3 4 3 3 3 3 2 1 0 0 1 3 5 6 7 7 8 9 9 9 10 11 11 12 12 12 12 11 11 12 13 13 14 13 13 13 13 14 14 15 15 14 14 13 14 13 13 13 13 12 11 10 9 8 8 8 7 6 6 4 3 3 1 1 2 5 5 4
Wind_Direction
256 169 185 194 190 202 200 200 156 132 112 105 111 149 199 256 268 258 270 279 287 255 245 221 225 230 223 184 187 186 183 194 194 193 193 198 196 192 206 210 212 213 209 193 184 182 181 179 178 184 191 197 195 192 188 178 181 187 182 175 172 158 155 155 157 161 158 155 142 154 179 172 156 147 133 124 130 148 133 161 167 158 166 130 116 118
199 177 225 217 208 180 194 139 113 100 91 155 141 212 224 197 260 222 107 7 282 231 259 117 222 234 265 319 190 181 190 201 199 197 199 200 200 204 210 213 215 213 199 139 157 177 176 187 184 180 195 192 188 192 186 182 188 194 183 181 170 161 168 173 175 171 169 174 175 170 171 156 144 147 147 137 133 136 133 171 176 189 173 146 124 128
165 204 220 223 116 97 88 143 142 153 133 105 231 192 263 229 258 287 70 253 41 221 250 62 212 104 351 65 182 192 200 207 206 209 207 200 201 211 215 213 214 212 213 199 192 180 189 184 180 185 191 198 198 180 189 186 181 182 185 183 166 172 179 181 177 176 169 162 130 147 141 145 123 82 74 100 104 108 109 66 184 182 197 151 126 126
198 230 233 135 147 118 86 122 127 99 102 164 149 200 235 99 228 150 116 14 59 269 266 169 158 81 52 115 167 205 207 184 240 211 208 203 212 218 217 210 207 213 215 211 197 187 192 186 182 186 185 190 189 183 185 185 183 177 176 167 160 164 173 171 177 167 114 114 105 94 115 103 102 126 113 102 104 106 114 107 25 272 200 156 130 123
199 54 44 127 153 167 130 158 146 171 198 243 219 225 252 204 208 229 99 315 281 103 27 131 121 144 64 132 188 193 59 169 121 156 173 207 224 227 228 222 217 219 217 217 208 192 189 191 191 189 186 179 187 188 187 184 182 174 172 165 166 166 171 164 159 147 133 124 116 114 103 100 95 98 117 121 113 116 118 126 124 70 145 159 139 127
254 193 130 112 131 141 131 150 206 171 207 192 230 213 218 197 206 241 341 177 175 134 42 294 150 172 101 142 189 191 196 213 153 210 205 203 208 223 224 220 219 226 223 221 215 203 189 191 186 191 187 188 191 189 187 179 178 172 165 162 164 161 161 162 162 154 153 154 148 147 141 141 137 136 151 148 144 145 141 113 63 56 66 129 130 130
222 77 182 195 147 174 195 204 206 204 181 180 216 198 215 120 102 325 207 173 185 178 76 332 266 126 36 126 161 180 209 221 188 222 214 202 207 213 224 224 220 220 219 222 219 197 186 188 187 191 192 194 192 190 171 173 177 176 163 163 165 165 166 165 161 161 161 161 165 164 162 154 149 142 126 104 113 121 108 106 95 84 78 104 133 137
131 124 105 75 123 150 187 218 204 183 161 200 128 161 164 188 220 221 151 188 65 25 233 17 346 153 164 123 320 260 205 216 226 225 219 209 206 210 214 215 215 214 214 213 207 200 192 188 189 190 189 192 196 175 169 173 171 173 165 160 164 166 166 166 159 162 169 163 162 152 127 117 129 128 129 134 119 102 115 118 115 119 113 112 116 137
162 159 182 148 104 161 200 215 165 186 182 245 138 173 157 185 185 158 156 97 26 237 173 162 3 175 149 116 205 198 179 201 226 225 225 214 208 212 213 209 204 205 204 204 199 193 189 190 190 180 183 188 186 180 178 169 162 153 149 155 157 162 158 154 155 154 166 157 154 153 136 115 91 99 105 111 111 115 122 112 101 108 110 108 96 98
258 199 200 163 165 240 221 233 163 175 196 73 129 88 87 92 86 29 118 123 181 203 198 109 347 195 176 53 184 140 229 199 233 216 222 222 214 207 210 213 206 201 200 204 205 188 184 182 174 165 151 164 188 158 141 133 138 147 147 150 151 145 135 128 144 149 148 153 152 145 141 118 110 105 110 117 117 114 116 105 99 111 113 107 107 93
354 344 92 172 223 227 111 48 171 130 8 134 172 99 78 50 31 46 53 359 128 223 190 355 337 297 174 189 97 149 86 347 328 307 93 353 275 235 215 210 203 200 197 197 190 174 163 152 155 160 167 164 144 147 155 150 154 148 153 147 148 133 121 134 144 153 141 135 129 125 121 118 129 139 138 133 128 123 123 120 118 118 106 93 96 97
324 48 223 223 71 106 111 88 39 14 118 169 135 132 108 68 358 60 23 2 183 208 91 0 324 304 203 182 169 243 300 264 277 288 309 313 301 267 222 210 206 203 198 185 171 154 147 147 161 165 159 164 162 156 163 159 154 156 146 142 138 127 133 136 125 108 91 100 94 103 127 136 148 152 154 148 143 143 132 129 132 136 127 110 101 101
250 224 240 320 236 173 141 98 95 77 343 152 114 132 187 147 65 184 197 197 210 210 81 358 116 171 239 20 328 318 342 338 304 293 296 299 295 272 251 222 206 196 184 170 161 150 159 167 170 179 173 167 169 178 172 165 161 149 139 144 146 135 126 97 78 74 70 63 61 71 110 132 145 147 142 141 133 135 135 138 146 157 136 127 127 126
245 311 310 252 194 212 178 193 123 181 183 166 173 149 166 165 146 208 114 356 329 280 97 32 339 301 30 270 278 296 331 336 320 310 292 282 275 283 283 215 188 169 169 167 160 161 164 168 177 184 181 181 177 171 164 158 150 143 136 139 155 115 81 78 78 79 80 77 81 110 154 154 158 156 157 148 134 125 129 148 161 169 148 138 133 133
209 207 220 156 205 132 191 196 181 161 174 192 37 180 197 162 173 189 188 200 215 188 94 52 194 171 170 126 285 302 330 336 348 346 337 316 291 287 316 135 131 128 115 117 115 104 92 72 45 24 7 358 353 143 148 141 132 123 131 144 123 84 85 94 106 117 123 138 163 173 170 143 119 166 157 142 133 141 152 173 163 165 148 127 125 121
239 259 281 269 3 91 196 170 93 98 79 61 188 53 134 213 145 234 114 244 160 147 188 180 235 340 66 353 306 323 304 357 17 12 6 27 50 80 87 94 102 104 108 107 100 89 83 89 92 85 55 357 330 325 335 87 101 124 126 104 90 102 110 118 142 154 159 175 185 152 146 164 166 166 155 136 123 141 156 157 162 156 149 121 126 121
61 234 334 335 149 233 285 131 198 191 215 157 157 196 196 33 111 96 105 56 13 15 207 45 241 224 182 155 169 241 185 40 31 26 25 32 64 83 91 99 105 111 114 113 109 106 94 79 85 114 126 173 269 290 288 86 107 131 126 101 106 107 142 175 175 162 143 173 150 157 172 158 158 177 165 141 157 155 148 138 132 152 147 133 135 128
191 211 334 128 146 46 301 262 84 30 70 107 212 172 118 100 36 144 184 73 59 213 182 144 65 174 188 152 195 156 157 104 68 68 55 55 77 88 96 109 117 120 121 126 124 122 118 97 55 15 52 77 222 232 164 83 95 125 129 123 131 157 186 169 120 119 157 192 193 177 164 159 154 163 144 152 154 153 142 138 132 157 168 154 138 130
181 248 198 342 280 333 8 183 89 72 351 231 209 136 184 183 190 29 118 177 163 208 183 151 265 265 249 90 356 3 354 357 18 52 59 61 77 94 107 122 134 142 144 123 120 107 85 105 121 103 81 97 165 133 90 98 107 112 117 135 150 163 164 146 147 166 188 187 188 179 162 161 165 171 161 161 151 156 147 157 153 179 168 139 142 135
350 198 267 157 157 350 339 160 193 140 59 52 124 113 360 287 138 163 219 100 194 189 107 168 201 197 154 359 329 305 332 342 350 46 66 78 91 99 81 75 43 49 67 88 96 90 87 71 83 93 102 83 67 65 76 94 113 130 141 150 156 158 163 165 170 177 183 178 182 178 159 154 160 183 172 162 155 169 166 168 165 162 166 151 148 136
132 327 213 29 284 294 188 356 228 162 154 118 143 110 88 38 298 37 57 43 217 162 196 153 192 198 103 347 302 299 305 320 328 19 81 76 75 56 40 37 43 64 74 80 85 81 68 54 88 96 84 92 97 107 111 130 136 135 145 155 160 164 173 179 178 184 188 163 179 178 177 160 172 184 178 154 162 169 141 148 159 168 170 141 141 139
101 181 195 328 124 215 6 356 278 249 261 201 172 179 157 139 139 176 190 108 307 169 179 171 203 114 54 356 314 301 302 303 307 172 95 80 67 67 56 36 34 45 51 67 70 72 90 88 56 52 70 94 106 109 133 141 139 143 154 163 169 175 183 189 185 185 172 173 175 189 177 175 181 181 179 165 156 159 141 148 154 152 158 151 129 138
129 142 96 122 160 69 68 58 43 343 126 106 282 146 157 26 125 171 187 181 51 30 71 357 190 155 30 349 334 321 317 328 321 148 101 84 73 69 62 58 58 60 69 74 86 86 72 66 62 55 45 61 77 94 112 125 133 140 153 165 176 184 191 200 202 185 172 178 181 192 194 176 175 182 183 182 167 165 158 151 142 147 149 142 130 127
145 68 86 41 299 257 254 264 147 41 247 152 54 39 176 173 175 164 76 159 155 128 169 138 211 115 54 14 353 350 4 31 56 71 100 89 81 68 65 61 69 81 81 76 74 74 72 68 66 59 50 49 57 52 51 75 120 144 152 169 180 196 191 199 213 207 188 184 180 172 183 193 173 176 183 187 181 161 158 153 153 154 149 147 149 139
84 292 113 113 100 119 254 157 290 53 67 55 60 20 352 35 76 93 111 26 137 203 245 172 203 161 78 3 19 20 30 45 44 43 54 89 77 77 73 66 62 57 53 52 54 58 57 56 54 51 51 51 55 62 68 71 68 83 129 188 200 199 197 199 205 218 215 208 205 190 184 182 185 196 195 194 174 164 159 161 158 156 153 152 160 153
79 4 31 171 167 174 182 194 192 177 121 31 36 21 25 352 129 150 148 163 216 140 170 216 134 89 111 25 29 23 18 48 42 48 66 64 67 66 62 56 51 53 56 56 56 56 57 58 59 53 46 51 47 45 43 47 49 46 39 1 318 277 207 205 212 221 223 224 224 221 210 196 195 202 203 194 178 174 171 165 165 155 151 157 158 161
92 67 24 331 223 166 62 72 34 294 220 103 49 34 357 346 322 309 82 152 210 144 190 4 70 140 77 12 8 16 29 33 30 34 45 59 64 69 66 63 60 61 59 57 56 62 64 59 57 57 52 53 48 39 41 39 46 39 22 358 343 333 322 289 233 228 232 230 232 234 225 213 203 200 200 197 188 177 176 176 169 164 161 163 160 165
77 80 11 25 45 42 19 53 353 13 91 25 13 354 0 360 323 328 166 168 114 127 206 86 134 122 57 16 25 29 34 50 55 44 55 60 63 65 67 66 61 60 57 57 53 53 57 57 52 48 44 46 44 42 41 42 41 44 35 17 347 321 315 313 274 241 235 237 240 242 234 217 198 193 197 193 189 188 188 180 174 176 167 169 170 174
126 98 324 63 56 63 59 81 87 79 75 101 82 14 22 1 23 61 15 24 303 210 198 133 120 98 85 50 39 44 46 57 67 64 58 70 73 70 64 59 58 56 55 53 51 52 50 50 48 46 45 44 44 41 38 38 36 31 38 36 23 334 299 297 272 261 250 248 250 251 247 224 202 199 192 189 189 190 190 188 183 179 175 179 180 179
103 138 125 100 56 11 15 12 21 76 103 65 35 28 14 60 59 66 55 18 24 83 98 117 98 95 104 78 57 40 51 79 69 66 70 64 63 68 66 62 59 56 54 53 51 50 48 46 45 45 45 43 42 41 41 38 37 37 32 22 9 4 358 328 312 289 268 255 258 267 260 238 211 205 198 191 193 195 192 189 184 180 182 189 194 190
105 182 164 136 108 212 321 346 344 40 50 61 62 58 38 36 74 78 98 87 86 73 77 99 101 98 67 48 82 90 102 91 78 65 61 60 61 66 67 63 59 57 56 55 52 50 50 47 44 43 43 42 38 37 40 35 38 47 47 29 19 10 356 343 328 315 304 292 294 291 280 266 246 228 221 212 203 199 197 192 183 189 192 197 206 207
63 115 117 134 146 227 155 75 21 2 30 31 331 77 33 14 61 352 81 336 247 145 136 108 93 113 125 99 100 97 88 75 71 68 63 58 59 64 66 63 59 54 52 51 49 48 46 46 44 42 41 39 36 37 32 25 31 38 41 40 35 27 20 16 357 334 318 309 308 295 277 264 276 275 275 278 254 228 215 196 195 201 207 207 206 204
115 138 164 163 161 194 110 120 131 120 33 302 270 27 107 98 124 115 65 33 2 130 144 168 124 122 133 138 106 84 78 73 69 59 69 61 55 59 59 58 55 50 44 41 39 38 34 33 34 33 32 35 33 31 29 27 31 29 20 27 33 46 44 42 31 13 353 335 325 317 303 288 268 259 262 271 273 259 245 234 224 218 214 210 212 203
154 150 152 176 169 130 120 114 136 140 205 220 34 286 274 105 174 100 48 10 14 323 346 65 123 133 133 136 110 95 82 71 73 60 39 48 57 57 56 53 51 49 47 43 40 36 30 27 25 25 26 24 20 20 17 32 33 29 15 9 23 29 42 52 50 42 25 7 347 323 311 297 278 264 262 254 250 243 242 239 239 236 231 227 209 205
119 93 109 32 120 139 134 130 124 194 209 17 323 318 226 119 101 95 80 55 60 91 110 109 121 134 133 118 111 104 100 91 72 67 53 38 48 56 60 55 48 42 39 33 30 28 24 22 15 17 17 14 7 6 10 16 9 17 26 19 25 23 18 25 45 54 55 55 30 349 312 297 291 286 272 245 234 232 234 239 241 230 222 219 222 213
145 133 140 63 79 76 139 168 171 210 5 336 48 70 107 115 120 100 74 54 33 24 89 115 119 121 124 120 115 114 106 106 88 65 59 50 42 44 51 47 40 38 35 27 22 19 15 12 6 5 1 352 3 14 14 8 355 3 11 13 21 18 18 10 21 28 20 27 32 15 322 262 262 271 273 251 231 233 237 234 233 233 229 225 230 222
115 103 118 110 330 168 152 145 32 340 293 95 116 154 186 162 159 344 117 66 16 354 76 122 124 130 131 131 127 126 121 116 86 66 44 39 36 42 46 46 38 35 33 27 20 13 7 3 358 355 352 356 9 17 8 356 356 357 360 7 7 2 7 7 13 8 358 350 352 348 327 289 260 233 225 219 222 225 227 220 220 225 219 219 221 215
32 269 172 129 123 146 145 129 107 73 231 202 186 64 27 352 11 231 108 102 47 23 351 135 137 150 157 167 193 190 253 178 84 70 33 26 27 28 40 41 36 33 30 24 17 14 12 7 358 2 359 0 14 16 2 354 350 347 2 359 355 355 350 352 352 351 350 346 345 339 331 330 275 252 214 200 210 216 220 218 218 213 197 204 188 193
42 59 80 127 129 132 174 176 190 182 207 23 120 348 341 327 234 226 174 136 122 323 123 146 125 121 143 176 157 143 180 185 114 79 35 15 22 26 22 27 25 25 25 22 18 10 7 4 356 360 6 8 7 360 356 355 351 352 355 357 346 340 342 345 341 338 332 327 328 329 328 324 318 298 259 209 208 206 223 218 205 175 200 221 165 142
54 15 39 75 90 4 122 168 215 192 80 69 332 306 328 336 155 183 192 181 138 182 146 127 110 113 109 87 133 144 225 182 118 78 29 10 20 35 25 16 13 14 17 16 20 9 360 1 2 5 5 3 358 350 353 354 352 351 346 342 334 330 335 342 337 332 322 318 317 313 312 310 308 296 273 261 223 189 193 182 187 168 163 138 139 132
14 26 30 134 132 108 109 29 356 195 241 280 303 315 338 211 216 192 215 113 145 139 146 110 101 86 51 68 7 98 52 44 50 43 27 20 27 30 24 20 13 8 8 6 5 357 357 1 3 357 351 350 348 349 349 351 346 342 341 335 328 329 333 333 328 324 324 321 318 314 313 310 299 295 283 272 266 238 173 179 192 165 155 143 133 120
60 62 96 109 75 142 158 159 118 27 95 338 299 299 288 171 182 214 67 45 121 126 114 105 106 87 73 69 69 69 67 48 51 46 33 32 25 15 6 1 360 2 4 1 356 360 353 347 347 345 345 345 343 341 343 343 339 332 334 329 324 326 330 331 329 325 322 322 319 318 312 306 302 285 271 247 246 245 220 191 181 165 164 148 140 130
6 34 46 85 120 108 133 97 156 223 97 353 310 231 26 263 49 104 130 109 137 112 128 114 94 114 101 95 90 91 79 72 60 36 28 32 16 9 1 0 359 354 352 352 352 357 351 340 338 338 335 334 335 334 331 333 325 321 320 313 312 318 323 324 320 321 319 316 313 311 311 308 300 282 257 206 183 218 251 230 189 165 165 152 149 142
355 160 113 139 309 244 146 178 116 20 339 336 281 102 53 73 118 132 117 115 121 123 108 109 92 97 109 74 85 68 82 66 61 31 14 15 6 358 356 353 352 347 345 345 342 341 339 331 329 326 327 325 325 326 325 324 315 308 302 294 301 309 312 313 315 315 312 307 303 302 303 303 300 280 256 230 171 188 222 201 197 168 177 185 160 150
359 36 342 121 35 15 48 96 122 348 4 27 70 91 90 90 91 83 82 91 112 103 130 94 93 92 75 67 75 56 55 48 30 31 9 356 346 346 345 343 339 338 336 333 330 332 329 323 319 315 311 313 312 313 311 308 301 298 292 295 307 305 306 306 308 306 302 301 300 300 298 298 295 288 273 257 227 194 187 191 196 180 168 173 204 161
82 66 43 78 80 99 56 45 60 61 56 57 45 51 76 76 63 64 73 82 75 82 67 73 72 81 87 68 55 66 61 33 9 6 353 336 324 323 322 324 326 324 321 319 322 329 323 316 312 310 308 310 312 307 304 299 291 286 287 296 297 298 297 296 294 292 291 293 293 294 294 292 291 288 283 268 250 228 194 183 177 173 122 18 279 189
6 312 89 104 149 104 107 184 109 101 78 37 54 40 43 49 35 37 59 53 51 52 64 60 74 81 79 74 76 73 65 83 346 340 333 322 331 330 330 328 330 329 327 329 329 327 325 325 318 316 315 312 314 311 307 303 295 289 291 291 293 294 293 290 284 279 276 275 278 280 283 282 280 285 286 270 240 236 221 188 186 198 199 178 186 180
80 346 83 100 90 47 117 158 163 55 336 356 140 123 126 115 79 56 62 65 77 60 64 68 76 68 41 49 39 15 359 10 357 347 340 335 329 328 331 335 333 331 329 326 324 326 321 318 315 313 315 313 314 311 308 305 301 298 296 294 291 288 287 283 279 277 273 269 268 270 271 274 274 274 275 273 253 243 229 212 196 199 204 191 173 155
350 277 123 191 101 93 71 85 132 167 185 192 172 277 67 107 113 90 80 94 91 85 78 66 50 67 53 45 22 356 342 343 349 341 332 326 328 334 336 331 329 326 323 322 321 318 314 313 313 312 311 310 312 311 308 304 302 299 296 294 291 288 284 280 280 278 275 271 264 260 258 261 267 267 269 271 259 248 305 272 216 206 206 201 208 194
199 122 122 129 115 152 180 170 169 164 185 188 197 168 143 122 92 90 100 100 118 118 113 104 79 44 25 22 355 346 328 328 331 335 324 322 324 327 326 324 321 319 317 318 316 316 315 313 310 308 306 305 305 302 300 300 301 300 296 293 288 285 280 278 279 276 273 269 263 258 253 249 251 253 255 254 248 214 146 56 345 322 285 217 137 268
315 145 164 160 166 169 185 165 178 72 70 55 155 148 132 114 126 116 111 128 133 132 136 136 133 159 4 347 227 292 311 315 318 324 318 320 321 321 319 320 322 322 322 324 322 320 319 315 312 308 303 302 302 300 298 295 294 294 293 292 288 281 275 271 273 273 271 268 262 258 255 251 247 247 247 244 243 214 171 136 81 325 269 258 213 242